Weather History for KGRR - July, 2013

Change the Weather History Date:

Wednesday, July 31, 2013

  Actual Average Record
Temperature  
Mean Temperature 68 °F 72 °F  
Max Temperature 72 °F 82 °F 98 °F (1917)
Min Temperature 64 °F 62 °F 46 °F (1971)
Degree Days  
Heating Degree Days 0 0  
Month to date heating degree days 11 0  
Since 1 June heating degree days 51 51  
Since 1 July heating degree days 11 6  
Cooling Degree Days 3 7  
Month to date cooling degree days 258 239  
Year to date cooling degree days 489 431  
Since 1 June cooling degree days 407 384  
Growing Degree Days 18 (Base 50)    
Moisture  
Dew Point 62 °F    
Average Humidity 83    
Maximum Humidity 93    
Minimum Humidity 73    
Precipitation  
Precipitation 0.16 in 0.12 in 1.59 in (1925)
Month to date precipitation 3.21 3.78  
Year to date precipitation 30.42 21.13  
Snow  
Snow 0.00 in 0.00 in 0.00 in (2006)
Month to date snowfall 0.0 0.0  
Since 1 June snowfall 0.0 0.0  
Since 1 July snowfall 0.0 0.0  
Snow Depth 0.00 in    
Sea Level Pressure  
Sea Level Pressure 30.03 in    
Wind  
Wind Speed 5 mph (ENE)    
Max Wind Speed 10 mph    
Max Gust Speed 14 mph    
Visibility 7 miles    
Events Rain    
T = Trace of Precipitation, MM = Missing Value Source: NWS Daily Summary

Daily Weather History Graph

Daily Weather History Graph

Search for Another Location

Airport or City:

Trip Planner

Search our weather history database for the weather conditions in past years. The results will help you decide how hot, cold, wet, or windy it might be!

Date:

Astronomy

Jul. 31, 2013 Rise Set
Actual Time 6:32 AM EDT 9:03 PM EDT
Civil Twilight 6:00 AM EDT 9:35 PM EDT
Nautical Twilight 5:19 AM EDT 10:15 PM EDT
Astronomical Twilight 4:34 AM EDT 11:01 PM EDT
Moon 1:27 AM EDT 4:19 PM EDT
Length of Visible Light 15h 35m
Length of Day
14h 31m
Waning Crescent, 32% of the Moon is Illuminated
Jul 31
Waning Crescent
Aug 6
New
Aug 14
First Quarter
Aug 20
Full
Aug 28
Last Quarter

Hourly Weather History & Observations

Time (EDT) Temp. Dew Point Humidity Pressure Visibility Wind Dir Wind Speed Gust Speed Precip Events Conditions
12:53 AM 68.0 °F 59.0 °F 73% 30.12 in 10.0 mi North 5.8 mph - 0.00 in Rain Light Rain
1:53 AM 68.0 °F 57.9 °F 70% 30.10 in 10.0 mi North 5.8 mph - 0.00 in   Overcast
3:53 AM 66.0 °F 57.9 °F 75% 30.09 in 10.0 mi Calm Calm - N/A   Overcast
4:53 AM 64.9 °F 59.0 °F 81% 30.09 in 10.0 mi East 4.6 mph - 0.00 in   Overcast
5:53 AM 64.0 °F 59.0 °F 84% 30.07 in 10.0 mi ESE 5.8 mph - N/A   Overcast
6:53 AM 64.0 °F 59.0 °F 84% 30.08 in 10.0 mi ENE 5.8 mph - N/A   Overcast
7:53 AM 64.0 °F 60.1 °F 87% 30.07 in 10.0 mi East 6.9 mph - 0.00 in   Overcast
8:53 AM 64.9 °F 61.0 °F 87% 30.08 in 10.0 mi East 6.9 mph - N/A   Overcast
9:36 AM 64.4 °F 60.8 °F 88% 30.09 in 8.0 mi NE 3.5 mph - 0.00 in Rain Light Rain
9:45 AM 64.4 °F 60.8 °F 88% 30.09 in 5.0 mi ENE 3.5 mph - 0.00 in Rain Light Rain
9:53 AM 64.9 °F 61.0 °F 87% 30.08 in 3.0 mi ENE 4.6 mph - 0.00 in Rain Light Rain
10:16 AM 64.4 °F 62.6 °F 94% 30.08 in 4.0 mi ENE 6.9 mph - 0.01 in Rain Light Rain
10:53 AM 66.0 °F 63.0 °F 90% 30.06 in 7.0 mi East 5.8 mph - 0.01 in   Overcast
11:19 AM 66.2 °F 62.6 °F 88% 30.07 in 6.0 mi NE 5.8 mph - 0.00 in   Overcast
11:29 AM 66.2 °F 62.6 °F 88% 30.07 in 4.0 mi NE 5.8 mph - 0.00 in Rain Light Rain
11:53 AM 66.0 °F 63.0 °F 90% 30.05 in 3.0 mi East 8.1 mph - 0.01 in Rain Light Rain
12:17 PM 66.2 °F 62.6 °F 88% 30.05 in 2.0 mi East 9.2 mph - 0.02 in Rain Rain
12:39 PM 66.2 °F 62.6 °F 88% 30.04 in 1.5 mi East 6.9 mph - 0.06 in Rain Rain
12:53 PM 66.9 °F 64.0 °F 90% 30.04 in 1.8 mi East 6.9 mph - 0.08 in Rain Light Rain
1:53 PM 66.9 °F 64.0 °F 90% 30.02 in 1.8 mi East 5.8 mph - 0.08 in Rain Light Rain
2:09 PM 68.0 °F 64.4 °F 88% 30.02 in 2.5 mi East 6.9 mph - 0.00 in Rain Light Rain
2:23 PM 68.0 °F 64.4 °F 88% 30.01 in 3.0 mi ESE 8.1 mph - 0.00 in   Overcast
2:53 PM 69.1 °F 64.9 °F 87% 30.00 in 10.0 mi ESE 6.9 mph - 0.00 in   Overcast
3:53 PM 69.1 °F 64.0 °F 84% 29.99 in 10.0 mi ESE 5.8 mph - N/A   Overcast
4:53 PM 69.1 °F 64.9 °F 87% 29.97 in 10.0 mi SE 4.6 mph - N/A   Overcast
5:44 PM 71.6 °F 64.4 °F 78% 29.96 in 10.0 mi Calm Calm - N/A   Overcast
5:53 PM 71.1 °F 64.0 °F 78% 29.95 in 10.0 mi Calm Calm - N/A   Overcast
6:53 PM 70.0 °F 64.9 °F 84% 29.95 in 10.0 mi North 4.6 mph - N/A   Overcast
7:53 PM 69.1 °F 64.9 °F 87% 29.96 in 9.0 mi NNW 8.1 mph - 0.00 in Rain Light Rain
8:22 PM 69.8 °F 64.4 °F 83% 29.96 in 7.0 mi North 5.8 mph - 0.00 in   Overcast
8:45 PM 68.0 °F 64.4 °F 88% 29.95 in 5.0 mi North 3.5 mph - 0.00 in   Overcast
8:53 PM 68.0 °F 64.0 °F 87% 29.94 in 4.0 mi NNW 3.5 mph - 0.00 in   Overcast
9:53 PM 68.0 °F 64.0 °F 87% 29.96 in 5.0 mi WNW 6.9 mph - N/A   Overcast
10:53 PM 66.9 °F 63.0 °F 87% 29.94 in 5.0 mi WNW 3.5 mph - 0.00 in Rain Light Rain
11:53 PM 66.0 °F 63.0 °F 90% 29.93 in 4.0 mi WSW 6.9 mph - 0.00 in   Mostly Cloudy